| |
Missouri Department of Transportation

Social Media Facebook Twitter Flickr Blog YouTube RSS

Current AWOS Information

 
AWOS Home - General Info for all Airports
Current AWOS for all Airports - Current METAR for all Airports
Glossary - Disclaimer - Other Links


LEBANON--FLOYD W JONES LEBANON--KLBO
 
Recent AWOS History
 
10/22/14     05:12 PM CDT      22:12 GMT
Air Temperature 68°F (20°C ) 1st Cloud Layer Clear
Dew Point 44°F (7°C) 2nd Cloud Layer  
Barometric Pressure 30.17 in Hg. 3rd Cloud Layer  
Wind Speed 7 mph (6 knots) Density Altitude  
Peak Wind Gusts   Variable Wind Directions  
Wind Direction Quadrant(120°) Variable Visibility  
Visibility 10 statute miles  

Thunderstorm and Precipitation Identification: 
Thunderstorm Remarks: 

Current METAR Record: METAR KLBO 222215Z AUTO 13007KT 10SM CLR 20/07 A3017 RMK AO2

 

 

 

About Us
How Do I...
Contact Us
Missouri Department of Transportation
Central Office
105 W. Capitol Avenue
Jefferson City, MO 65102
1-888-ASK-MODOT (275-6636)
1-866-831-6277 (Motor Carrier Services)
Drivers License Offices
horz_bar
| | |
Missouri State Government
© 2013 Missouri Department of Transportation. All Rights Reserved.   Privacy Policy.
 
 
 
 
RSS FeedYoutubeBlogFlickrTwitter Facebook